Location: Newark
(48.3453°N, 0.5589°E)
Time: 20:34:04
(UTC+00:00)

A-11 Canister half - Pass Details

Date: 14 December 2019
Orbit: 1517 x 1683 km, 47.2° (Epoch: 25 January)

Event Time Altitude Azimuth Distance (km) Brightness Sun altitude
Rises 18:51:18 0° 288° (WNW) 4,893 12.7 -26.7°
Reaches altitude 10° 18:55:51 10° 271° (W) 3,923 12.1 -27.5°
Maximum altitude 19:01:43 17° 234° (SW) 3,372 11.4 -28.5°
Drops below altitude 10° 19:07:38 10° 198° (SSW) 3,938 11.3 -29.4°
Sets 19:12:15 0° 180° (S) 4,919 11.7 -30.2°
